Location: Blanot
(47.1713°N, 4.2340°E)
Time: 21:10:54
(UTC+00:00)

Meteor 1-5 Rocket - Pass Details

Date: 14 July 2020
Orbit: 789 x 915 km, 81.2° (Epoch: 14 August)

Event Time Altitude Azimuth Distance (km) Brightness Sun altitude
Exits shadow 01:55:51 23° 198° (SSW) 1,757 5.3 -15.5°
Maximum altitude 01:59:33 78° 282° (WNW) 902 4.3 -15.2°
Drops below altitude 10° 02:05:27 10° 9° (N) 2,579 7.8 -14.7°
Sets 02:07:57 0° 11° (N) 3,537 8.8 -14.4°
